TimePDT,TemperatureF,Dew PointF,Humidity,Sea Level PressureIn,VisibilityMPH,Wind Direction,Wind SpeedMPH,Gust SpeedMPH,PrecipitationIn,Events,Conditions,WindDirDegrees,DateUTC
12:56 AM,68.9,34.0,28,29.81,10.0,SSE,6.9,-,N/A,,Clear,160,2013-09-20 07:56:00
1:56 AM,68.0,34.0,28,29.80,10.0,SSE,6.9,-,N/A,,Clear,160,2013-09-20 08:56:00
2:56 AM,65.8,34.0,31,29.80,10.0,SSE,6.9,-,N/A,,Clear,160,2013-09-20 09:56:00
3:56 AM,65.8,34.9,32,29.79,10.0,South,6.9,-,N/A,,Clear,180,2013-09-20 10:56:00
4:56 AM,64.9,32.9,30,29.80,10.0,South,6.9,-,N/A,,Clear,190,2013-09-20 11:56:00
5:56 AM,64.9,32.9,30,29.81,10.0,South,8.1,-,N/A,,Clear,180,2013-09-20 12:56:00
6:56 AM,63.0,34.9,35,29.83,10.0,Calm,Calm,-,N/A,,Clear,0,2013-09-20 13:56:00
7:56 AM,70.9,36.0,28,29.85,10.0,SSW,4.6,-,N/A,,Clear,200,2013-09-20 14:56:00
8:56 AM,79.0,34.9,20,29.85,10.0,ENE,3.5,-,N/A,,Clear,70,2013-09-20 15:56:00
9:56 AM,81.9,32.9,17,29.86,10.0,NE,5.8,-,N/A,,Clear,40,2013-09-20 16:56:00
10:56 AM,83.8,32.9,16,29.84,10.0,North,3.5,-,N/A,,Clear,350,2013-09-20 17:56:00
11:56 AM,86.0,34.0,16,29.82,10.0,Variable,3.5,-,N/A,,Clear,0,2013-09-20 18:56:00
12:56 PM,90.0,34.0,14,29.80,10.0,NW,3.5,-,N/A,,Clear,310,2013-09-20 19:56:00
1:56 PM,92.8,34.0,13,29.76,10.0,Variable,5.8,-,N/A,,Clear,0,2013-09-20 20:56:00
2:56 PM,95.0,32.9,11,29.74,10.0,South,9.2,-,N/A,,Clear,170,2013-09-20 21:56:00
3:56 PM,95.0,32.9,11,29.71,10.0,SE,15.0,18.4,N/A,,Clear,130,2013-09-20 22:56:00
4:56 PM,95.0,32.0,11,29.69,10.0,SE,12.7,20.7,N/A,,Clear,130,2013-09-20 23:56:00
5:56 PM,92.8,32.0,12,29.69,10.0,SSE,21.9,-,N/A,,Clear,150,2013-09-21 00:56:00
6:56 PM,88.9,32.0,13,29.70,10.0,SSE,13.8,-,N/A,,Clear,160,2013-09-21 01:56:00
7:56 PM,86.0,32.9,15,29.71,10.0,SSE,13.8,-,N/A,,Clear,160,2013-09-21 02:56:00
8:56 PM,83.8,34.0,17,29.73,10.0,South,8.1,-,N/A,,Clear,170,2013-09-21 03:56:00
9:56 PM,81.0,30.0,16,29.73,10.0,SSW,8.1,-,N/A,,Clear,210,2013-09-21 04:56:00
10:56 PM,75.9,31.1,19,29.74,10.0,SW,6.9,-,N/A,,Clear,220,2013-09-21 05:56:00
11:56 PM,75.9,32.9,21,29.73,10.0,SSE,6.9,-,N/A,,Clear,150,2013-09-21 06:56:00